Location: Huesca
(42.1318°N, 0.4078°W)
Time: 07:36:21
(UTC+01:00)

BlueWalker 3 - Visible Passes

Search period start: 01 December 2023 00:00
Search period end: 11 December 2023 00:00
Orbit: 489 x 504 km, 53.2° (Epoch: 29 November)

Date Brightness Start Highest point End Pass type
(mag) Time Alt. Az. Time Alt. Az. Time Alt. Az.
01 Dec 4.7 05:24:08 15° NE 05:24:08 15° NE 05:25:13 10° ENE visible
01 Dec 2.3 06:58:41 18° NW 07:01:25 58° NNE 07:05:11 10° ESE visible
02 Dec 5.2 05:02:34 10° ENE 05:02:34 10° ENE 05:02:36 10° ENE visible
02 Dec 2.3 06:37:08 30° NNW 06:38:48 58° NNE 06:42:34 10° ESE visible
03 Dec 2.2 06:15:37 51° N 06:16:10 57° NNE 06:19:55 10° ESE visible
04 Dec 2.7 05:54:09 49° ENE 05:54:09 49° ENE 05:57:16 10° ESE visible
04 Dec 3.5 07:28:43 10° W 07:31:36 20° SW 07:34:28 10° S visible
05 Dec 4.0 05:32:43 27° ESE 05:32:43 27° ESE 05:34:36 10° ESE visible
05 Dec 3.5 07:07:18 16° W 07:08:56 21° SW 07:11:50 10° S visible
06 Dec 5.0 05:11:22 14° ESE 05:11:22 14° ESE 05:11:55 10° ESE visible
06 Dec 3.4 06:45:57 21° WSW 06:46:15 21° SW 06:49:11 10° S visible
07 Dec 3.7 06:24:38 19° SSW 06:24:38 19° SSW 06:26:30 10° S visible
08 Dec 4.5 06:03:23 12° S 06:03:23 12° S 06:03:49 10° S visible
